Vertical_Velocity
-6 -3 1 -3 -2 1 4 4 1 -7 0 2 -10 -2 -8 -7 -1 19 -7 -35 -17 7 25 -4 27 2 -14 -3 5 5 -3 1 2 5 -3 1 2 9 7 -6 0 -0 7 -8
-2 3 -6 -2 -1 -1 0 4 5 2 6 -0 1 -4 3 -5 2 58 16 -3 -10 16 28 2 11 31 2 -4 3 7 -4 2 3 3 -5 -4 -3 -1 -0 10 -2 1 4 -3
-3 -4 -2 -5 -2 1 0 -2 4 6 2 11 9 -5 -9 9 15 13 1 2 -34 28 -13 -7 -45 15 5 -6 -11 7 -1 -1 3 7 1 -4 -2 -2 2 -1 -3 0 4 -2
-3 -2 -4 -4 -2 -2 -4 -1 -2 6 7 -1 -2 -9 -1 0 2 0 11 20 -11 -1 56 -10 -24 -4 22 -5 -11 1 -2 1 4 6 -4 -4 -2 -2 -1 -1 1 -2 3 -3
12 -2 2 -5 -1 -4 1 -3 -3 1 2 -1 9 1 -7 -1 -8 5 -2 8 1 -22 5 8 1 2 4 -13 2 -2 0 -2 6 2 -5 -4 -5 -1 1 -1 2 -1 0 1
7 -4 -3 -1 -2 -3 -1 -3 -2 -1 3 2 -2 -4 4 6 3 4 -18 -4 -3 -3 -9 -3 1 4 -3 2 -1 -2 -2 2 6 -5 -5 -3 -5 -1 -2 -2 -1 -0 -0 4
5 8 -1 -4 -3 -2 -3 -2 1 -3 3 -0 -4 2 -13 -2 3 2 -13 -13 -20 -13 -12 -8 -5 -3 -8 4 -3 -6 -1 7 -3 -4 -4 -6 -3 -1 -0 -1 -2 1 0 3
-3 -4 2 0 3 0 -7 -1 -2 -5 1 -2 -3 0 -2 -26 -17 13 6 8 12 11 10 11 0 4 -3 1 4 5 5 -6 -5 -0 -2 -7 2 -3 -2 1 0 1 -1 1
-1 -2 -2 7 -5 2 9 -9 6 -4 3 -7 -4 14 20 -4 -3 28 -0 -7 -4 -5 -1 8 10 8 10 9 -0 -4 -6 -8 -1 -1 -2 -1 2 1 -0 -0 -0 0 2 2
9 -9 -4 -12 13 1 -1 6 -6 -0 -0 -3 11 -4 5 6 12 23 -0 -9 3 -1 -13 -10 -9 1 -4 -7 -8 -7 -5 0 -2 -4 -3 1 -1 1 -3 -1 -1 1 1 0
7 -2 6 -5 2 5 -5 4 -4 1 -4 -0 13 6 8 -14 -5 7 7 9 -7 0 1 -5 -10 -7 -2 -2 -3 -5 -3 1 -2 -2 -1 -1 -2 -1 0 -2 -6 -3 -3 0
-2 0 -6 3 9 1 0 -2 -3 -6 8 3 12 -8 -11 -17 -15 -34 -20 -19 61 4 -2 5 5 -5 -3 -4 -3 -2 -1 -4 -3 -4 -2 -1 -1 1 -1 -1 1 -2 -1 -1
1 -5 -2 -3 5 5 -7 4 -5 -4 8 -3 6 9 -8 -17 4 12 15 -5 4 52 -2 -16 2 -1 5 0 4 -1 -2 0 -0 -0 -3 -3 -1 -0 -0 -0 -0 -0 2 -0
-5 1 -2 -7 11 0 -0 -7 -3 4 0 5 4 -5 -17 -9 8 24 19 -19 -10 20 14 -1 -6 -10 3 -9 -6 -4 -1 -1 -0 -3 -2 1 -1 -1 -1 0 -1 -0 0 -1
-9 -4 -3 -4 -2 3 1 -2 -0 -1 5 4 9 -2 -25 -12 -1 22 -9 7 20 32 -16 7 -4 -2 1 -1 -5 -2 1 -3 -1 -1 -1 -1 -1 -1 0 2 1 -1 -2 0
-4 -2 1 -9 9 -3 -6 -5 9 -9 -8 1 10 -0 -17 -23 -16 2 -1 -9 4 -6 10 -1 -9 -5 -1 -5 -3 -1 -2 0 -0 -2 1 -2 -3 -1 -1 -1 0 1 -1 -2
9 -3 -3 -5 3 4 -4 1 -5 -3 -2 3 6 -4 -8 -8 -2 16 -3 2 5 -11 -1 24 7 3 -5 -4 -2 -0 -1 -2 3 0 0 -0 -2 -2 0 -1 -1 -0 -1 -0
-4 2 -3 -0 3 -13 5 5 -3 4 9 -1 13 -3 -12 2 7 4 7 14 4 3 16 8 0 -8 0 -2 -2 -1 -3 4 3 -3 2 -1 -3 -5 3 -1 -3 -2 -2 -1
-2 -1 -2 -3 1 6 4 1 -2 -4 12 -5 -6 1 1 1 -4 7 8 8 -5 9 -6 -10 -3 -1 -1 -1 -1 -1 -1 -0 -1 -2 -1 -1 -3 0 -4 -2 2 1 -2 -3
-3 3 -2 2 1 -7 19 -9 -2 -3 -5 -13 -4 -7 -7 -1 -3 -0 -3 -1 0 -7 -5 -3 1 2 -1 -2 -1 -1 -1 -2 -3 -2 -2 -3 -4 -3 -2 -1 -2 -1 -2 -1
-3 -6 -6 0 -2 0 6 -5 1 -12 -9 1 1 -4 -1 3 -6 -3 0 3 -5 -7 -2 -1 -2 -2 -2 -2 -1 0 0 1 2 -0 1 1 -0 -0 1 -1 -0 -1 -2 -2
0 0 -5 7 -2 -10 -9 0 -11 -12 -2 -7 -7 2 -5 -2 -8 1 2 -0 -3 -1 -1 -1 -2 -2 -0 -1 -2 -1 1 0 0 1 0 -1 -1 -2 -1 -1 -3 -2 -2 -2
-7 -8 -8 -5 -11 -6 8 -3 -12 10 10 7 -3 5 -1 1 5 -0 2 1 4 3 2 1 -1 -1 -1 -2 -2 -1 0 -0 -0 -1 -1 1 -0 -1 -2 -2 -2 -0 -1 -2
-4 0 -2 -5 -1 -4 8 9 5 -3 23 20 -7 -4 4 -3 -4 -4 3 2 -2 1 2 0 -1 -1 -2 -2 -0 -0 0 -0 -2 -1 1 0 -3 -8 0 0 0 0 0 -1
-3 9 -2 -1 -3 -1 -3 5 7 2 34 1 -2 -2 1 8 -1 -5 -3 -3 -4 -2 -2 1 1 0 -1 -1 -1 0 1 -1 1 1 0 -1 1 0 1 -0 -1 0 -1 -0
-3 6 0 1 5 3 1 2 8 -8 37 7 0 1 15 8 -1 -2 -2 4 1 -0 1 1 2 1 -0 -1 1 -0 0 0 -0 -0 0 -0 -0 1 1 1 -0 -0 -0 -0
Height
5898 5900 5901 5901 5903 5903 5902 5901 5899 5901 5900 5902 5900 5898 5897 5893 5891 5876 5877 5877 5881 5875 5875 5874 5879 5873 5871 5868 5872 5872 5870 5869 5868 5866 5863 5859 5856 5851 5846 5842 5841 5842 5844 5846
5896 5897 5896 5897 5899 5899 5899 5900 5899 5899 5900 5900 5897 5898 5895 5894 5893 5895 5884 5874 5874 5867 5869 5873 5864 5861 5870 5869 5869 5869 5867 5865 5863 5862 5858 5854 5851 5845 5838 5833 5832 5833 5834 5835
5890 5892 5893 5893 5895 5895 5896 5896 5897 5898 5898 5898 5897 5894 5893 5893 5893 5888 5881 5869 5869 5861 5863 5871 5854 5850 5863 5865 5867 5866 5863 5861 5861 5858 5853 5848 5843 5836 5830 5827 5827 5826 5828 5828
5885 5888 5889 5890 5891 5891 5893 5893 5894 5893 5894 5893 5894 5889 5890 5888 5887 5888 5887 5885 5877 5856 5846 5865 5866 5869 5861 5864 5864 5863 5858 5859 5858 5854 5850 5844 5838 5832 5826 5823 5822 5821 5822 5823
5883 5883 5884 5886 5887 5887 5890 5889 5889 5889 5888 5888 5890 5886 5881 5884 5884 5883 5880 5880 5875 5872 5866 5865 5867 5864 5861 5864 5862 5860 5858 5858 5855 5849 5844 5838 5832 5825 5823 5820 5819 5818 5817 5820
5876 5877 5879 5882 5882 5884 5885 5886 5886 5885 5885 5884 5882 5880 5878 5881 5880 5876 5876 5873 5871 5864 5863 5865 5864 5862 5863 5863 5861 5858 5857 5856 5852 5846 5841 5835 5827 5822 5820 5820 5819 5817 5816 5818
5870 5872 5873 5876 5878 5879 5881 5882 5882 5881 5881 5881 5880 5880 5876 5878 5878 5875 5867 5870 5869 5870 5867 5864 5863 5862 5863 5862 5860 5858 5856 5854 5849 5845 5840 5834 5826 5822 5820 5819 5818 5816 5816 5817
5863 5866 5870 5873 5875 5876 5876 5877 5877 5876 5877 5877 5876 5877 5871 5871 5868 5873 5869 5871 5874 5875 5871 5867 5864 5864 5862 5861 5859 5858 5854 5850 5847 5844 5840 5833 5826 5821 5821 5819 5816 5816 5817 5816
5858 5861 5864 5867 5868 5871 5874 5870 5874 5872 5873 5871 5872 5874 5872 5866 5867 5869 5868 5870 5874 5874 5870 5866 5865 5864 5862 5860 5857 5854 5850 5846 5845 5843 5840 5833 5829 5823 5822 5820 5818 5817 5816 5816
5855 5855 5858 5861 5865 5864 5867 5871 5868 5869 5868 5868 5870 5868 5870 5867 5863 5869 5860 5860 5866 5867 5865 5863 5862 5862 5859 5857 5855 5852 5848 5844 5843 5842 5840 5835 5831 5827 5824 5820 5819 5818 5817 5816
5849 5850 5856 5857 5860 5862 5863 5865 5864 5864 5864 5865 5868 5869 5863 5863 5862 5863 5859 5857 5857 5859 5860 5859 5859 5859 5857 5855 5853 5850 5845 5844 5844 5842 5841 5836 5833 5830 5826 5823 5821 5819 5818 5817
5842 5845 5847 5853 5856 5858 5859 5861 5859 5858 5862 5863 5865 5863 5858 5857 5852 5853 5854 5854 5847 5855 5855 5856 5854 5855 5855 5851 5850 5850 5849 5847 5844 5843 5840 5836 5833 5831 5828 5825 5822 5820 5818 5816
5839 5838 5841 5845 5851 5851 5852 5856 5854 5854 5856 5859 5861 5859 5858 5858 5856 5856 5852 5841 5825 5845 5849 5850 5850 5853 5853 5849 5849 5848 5846 5844 5842 5841 5839 5834 5832 5830 5828 5825 5823 5821 5818 5816
5831 5833 5836 5839 5846 5847 5848 5849 5851 5852 5851 5855 5858 5856 5853 5852 5851 5850 5845 5824 5816 5832 5846 5847 5845 5847 5849 5846 5843 5843 5843 5841 5839 5838 5835 5832 5829 5827 5825 5823 5822 5820 5818 5816
5824 5827 5829 5832 5837 5841 5843 5845 5847 5846 5848 5851 5855 5852 5846 5843 5843 5839 5838 5828 5823 5833 5837 5842 5843 5843 5844 5842 5839 5838 5839 5839 5836 5836 5833 5829 5827 5825 5822 5821 5819 5819 5818 5817
5815 5818 5823 5826 5833 5833 5835 5838 5842 5841 5842 5846 5850 5847 5840 5837 5837 5838 5838 5829 5830 5834 5840 5841 5839 5839 5839 5838 5837 5836 5836 5836 5835 5833 5831 5828 5824 5823 5820 5817 5816 5816 5816 5815
5808 5810 5814 5817 5826 5829 5830 5834 5834 5832 5838 5841 5844 5843 5840 5840 5841 5841 5838 5839 5834 5836 5835 5836 5835 5835 5835 5834 5833 5832 5832 5832 5832 5828 5828 5824 5822 5819 5818 5816 5814 5812 5812 5812
5798 5805 5808 5810 5817 5817 5826 5828 5828 5831 5834 5833 5835 5836 5837 5836 5833 5835 5835 5833 5834 5834 5833 5836 5835 5833 5831 5829 5828 5827 5828 5828 5828 5825 5823 5820 5818 5816 5817 5815 5813 5810 5809 5809
5794 5799 5802 5804 5808 5813 5818 5820 5823 5824 5827 5824 5826 5828 5831 5831 5834 5834 5836 5834 5831 5831 5831 5831 5829 5828 5827 5826 5825 5824 5824 5822 5823 5821 5819 5817 5814 5814 5813 5812 5810 5808 5806 5805
5789 5793 5796 5799 5801 5805 5813 5813 5817 5816 5817 5815 5818 5820 5823 5826 5827 5829 5826 5827 5828 5828 5828 5826 5826 5825 5823 5822 5821 5821 5820 5819 5817 5817 5815 5813 5811 5811 5809 5808 5806 5803 5801 5800
5782 5784 5788 5791 5794 5799 5804 5807 5810 5809 5812 5810 5812 5815 5817 5819 5821 5822 5824 5823 5822 5821 5820 5821 5820 5819 5819 5817 5816 5816 5816 5816 5814 5812 5810 5808 5806 5804 5803 5802 5801 5799 5797 5795
5771 5775 5780 5787 5789 5792 5793 5796 5798 5800 5803 5803 5804 5806 5808 5808 5809 5814 5816 5815 5815 5814 5814 5814 5814 5813 5813 5812 5811 5810 5811 5810 5810 5808 5807 5804 5802 5800 5799 5797 5795 5794 5792 5790
5760 5765 5771 5777 5779 5783 5789 5788 5788 5787 5790 5794 5796 5797 5799 5802 5803 5804 5806 5807 5808 5807 5807 5807 5807 5807 5806 5806 5805 5804 5804 5804 5804 5803 5801 5800 5797 5795 5793 5791 5789 5787 5786 5784
5750 5757 5763 5767 5772 5777 5781 5779 5779 5779 5780 5781 5785 5788 5791 5793 5794 5796 5796 5797 5798 5798 5800 5800 5799 5799 5799 5798 5797 5797 5797 5797 5797 5796 5795 5793 5790 5787 5786 5784 5783 5780 5778 5776
5744 5749 5751 5757 5762 5767 5768 5768 5770 5774 5740 5757 5773 5780 5785 5786 5784 5787 5790 5790 5791 5792 5792 5792 5791 5790 5790 5790 5790 5789 5790 5789 5789 5787 5786 5785 5784 5781 5779 5778 5775 5773 5772 5770
5736 5742 5747 5751 5756 5759 5761 5760 5764 5773 5759 5759 5765 5769 5773 5775 5775 5777 5780 5781 5782 5782 5783 5783 5783 5783 5782 5782 5782 5782 5782 5782 5781 5780 5778 5777 5775 5773 5772 5770 5768 5766 5765 5764